Location: Dodgeville
(42.9600°N, 90.1300°W)
Time: 07:26:33
(UTC-05:00)

Amateur Radio Satellites - All Passes

Search period start: 02 October 2014 06:56
Search period end: 03 October 2014 06:56
Location: Dodgeville, 42.9600°N, 90.1300°W

Satellite Date Start Highest point End Downlink Frequencies (MHz)
Time Altitude Azimuth
MaSat-1 02 Oct 07:27:54 07:30:30 15° 312° (NW) 07:33:01 437.345 MHz
SO-67 02 Oct 07:39:26 07:42:32 30° 97° (E) 07:45:36 435.3500 MHz FM
JAS-2 02 Oct 07:43:59 07:50:18 47° 291° (WNW) 07:57:18 435.800 - 435.900 CW/SSB, 435.910 FM
Hamsat 02 Oct 07:51:26 07:54:55 26° 292° (WNW) 07:58:22 145.90 MHz
STRAND 1 02 Oct 08:11:47 08:15:30 20° 268° (W) 08:19:14 ?
RS-15 02 Oct 08:22:33 08:31:20 26° 17° (NNE) 08:40:16 29.354 - 29.394 USB, Beacon 29.352 USB
AO-7 02 Oct 08:30:40 08:33:41 13° 319° (NW) 08:36:43 29.400 - 29.500 MHz
Sapphire 02 Oct 09:12:07 09:17:10 42° 112° (ESE) 09:22:16 437.095 MHz 1200 baud AX-25 AFSK
SO-67 02 Oct 09:13:08 09:15:18 16° 293° (WNW) 09:17:29 435.3500 MHz FM
HO-68 02 Oct 09:34:44 09:41:33 44° 99° (E) 09:48:19 435.675 MHz FM
PCSat 02 Oct 09:37:09 09:42:32 75° 118° (ESE) 09:47:58 145.825 MHz
Oscar 11 02 Oct 10:12:53 10:16:44 31° 96° (E) 10:20:34 145.825 FM, Beacon 2401.500 USB
RS-15 02 Oct 10:35:47 10:46:42 59° 47° (NE) 10:58:02 29.354 - 29.394 USB, Beacon 29.352 USB
FUNcube-1 02 Oct 10:40:43 10:44:35 27° 94° (E) 10:48:21 145.950 - 145.970 MHz USB
UKube-1 02 Oct 10:43:17 10:47:41 82° 104° (ESE) 10:52:03 145.840 MHz, 145.915 MHz
Sapphire 02 Oct 10:55:54 11:00:42 32° 311° (NW) 11:05:33 437.095 MHz 1200 baud AX-25 AFSK
PCSat 02 Oct 11:22:30 11:26:33 21° 318° (NW) 11:30:36 145.825 MHz
HO-68 02 Oct 11:22:37 11:29:09 39° 297° (WNW) 11:35:41 435.675 MHz FM
ZACube-1 02 Oct 11:25:44 11:30:20 82° 102° (ESE) 11:34:47 437.345 MHz
Oscar 11 02 Oct 11:49:16 11:52:47 25° 293° (WNW) 11:56:17 145.825 FM, Beacon 2401.500 USB
Oscar 19 02 Oct 12:07:45 12:10:03 13° 58° (ENE) 12:12:21 437.125 CW, 437.150 USB
FUNcube-1 02 Oct 12:16:58 12:20:57 30° 292° (WNW) 12:24:50 145.950 - 145.970 MHz USB
UKube-1 02 Oct 12:21:59 12:23:13 11° 301° (WNW) 12:24:28 145.840 MHz, 145.915 MHz
Oscar 16 02 Oct 12:46:30 12:50:56 29° 66° (ENE) 12:55:21 437.025 USB, Beacon 2401.1428
AO-Echo 02 Oct 12:47:12 12:49:17 13° 59° (ENE) 12:51:24 ?
RS-15 02 Oct 12:48:31 12:58:50 46° 250° (WSW) 13:09:34 29.354 - 29.394 USB, Beacon 29.352 USB
AO-27 02 Oct 13:00:19 13:03:38 18° 60° (ENE) 13:06:58 436.795 MHz FM
ZACube-1 02 Oct 13:04:27 13:06:01 12° 300° (WNW) 13:07:35 437.345 MHz
Saudisat 1A 02 Oct 13:09:49 13:12:59 20° 112° (ESE) 13:16:11 436.775 MHz
Gurwin Techsat 1B 02 Oct 13:33:10 13:36:33 17° 60° (ENE) 13:39:56 435.225 FM
JAS-1B 02 Oct 13:35:06 13:42:18 55° 70° (ENE) 13:48:25 435.800 - 435.900 CW/SSB
Oscar 19 02 Oct 13:43:25 13:48:37 89° 76° (ENE) 13:53:51 437.125 CW, 437.150 USB
AO-7 02 Oct 13:55:06 13:59:00 14° 43° (NE) 14:02:53 29.400 - 29.500 MHz
ITAMSAT 1 02 Oct 13:58:41 14:03:43 54° 71° (ENE) 14:08:48 435.822 SSB
Uribyol 2 02 Oct 13:59:07 14:04:12 58° 72° (ENE) 14:09:19 436.500 FM
TMSAT-1 02 Oct 14:00:07 14:04:06 22° 63° (ENE) 14:08:05 436.925 FM
MaSat-1 02 Oct 14:03:56 14:06:12 16° 49° (NE) 14:08:17 437.345 MHz
AO-Echo 02 Oct 14:22:44 14:27:25 77° 257° (WSW) 14:32:11 ?
Oscar 16 02 Oct 14:25:21 14:30:08 37° 263° (W) 14:34:57 437.025 USB, Beacon 2401.1428
AO-27 02 Oct 14:37:28 14:42:36 67° 258° (WSW) 14:47:48 436.795 MHz FM
Saudisat 1A 02 Oct 14:47:59 14:52:14 48° 309° (NW) 14:56:31 436.775 MHz
Gurwin Techsat 1B 02 Oct 15:10:40 15:15:56 69° 258° (WSW) 15:21:15 435.225 FM
KITSAT 1 02 Oct 15:26:29 15:30:50 16° 100° (E) 15:35:10 435.175 FM
JAS-1B 02 Oct 15:27:00 15:33:07 27° 264° (W) 15:38:32 435.800 - 435.900 CW/SSB
Oscar 19 02 Oct 15:27:14 15:28:39 11° 272° (W) 15:30:04 437.125 CW, 437.150 USB
TMSAT-1 02 Oct 15:38:29 15:43:38 52° 260° (W) 15:48:50 436.925 FM
MaSat-1 02 Oct 15:39:53 15:42:43 27° 252° (WSW) 15:45:12 437.345 MHz
ITAMSAT 1 02 Oct 15:39:54 15:43:33 19° 268° (W) 15:47:13 435.822 SSB
Uribyol 2 02 Oct 15:40:35 15:44:03 18° 269° (W) 15:47:34 436.500 FM
AO-7 02 Oct 15:42:00 15:50:02 57° 65° (ENE) 15:58:05 29.400 - 29.500 MHz
Uosat F 02 Oct 15:45:44 15:50:10 33° 67° (ENE) 15:54:39 435.120 FM
Oscar 10/S400 02 Oct 16:00:41 16:17:43 39° 153° (SSE) 16:46:37 145.825 - 145.975 CW/USB, Beacon 145.810 USB
JAS-2 02 Oct 16:16:27 16:18:47 13° 55° (NE) 16:21:11 435.800 - 435.900 CW/SSB, 435.910 FM
Sapphire 02 Oct 16:18:31 16:19:12 10° 30° (NNE) 16:19:53 437.095 MHz 1200 baud AX-25 AFSK
PCSat 02 Oct 16:42:12 16:45:17 15° 37° (NE) 16:48:21 145.825 MHz
Hamsat 02 Oct 17:09:47 17:13:14 24° 67° (ENE) 17:16:41 145.90 MHz
KITSAT 1 02 Oct 17:16:51 17:24:55 79° 119° (ESE) 17:33:01 435.175 FM
Uosat F 02 Oct 17:24:36 17:28:57 30° 264° (W) 17:33:20 435.120 FM
AO-7 02 Oct 17:35:51 17:43:09 34° 263° (W) 17:50:29 29.400 - 29.500 MHz
OPAL 02 Oct 17:36:45 17:41:32 40° 100° (E) 17:46:13 ?
JAS-2 02 Oct 17:57:48 18:02:58 89° 256° (WSW) 18:08:31 435.800 - 435.900 CW/SSB, 435.910 FM
Sapphire 02 Oct 17:58:57 18:04:08 43° 52° (NE) 18:09:17 437.095 MHz 1200 baud AX-25 AFSK
SO-67 02 Oct 18:14:33 18:16:11 13° 66° (ENE) 18:17:49 435.3500 MHz FM
PCSat 02 Oct 18:24:16 18:29:42 71° 58° (ENE) 18:35:06 145.825 MHz
SO-50 02 Oct 18:26:16 18:29:48 23° 112° (ESE) 18:33:24 436.795 FM
STRAND 1 02 Oct 18:42:04 18:45:10 16° 91° (E) 18:48:15 ?
Hamsat 02 Oct 18:45:09 18:49:02 32° 264° (W) 18:52:55 145.90 MHz
KITSAT 1 02 Oct 19:14:12 19:21:09 31° 321° (NW) 19:28:08 435.175 FM
OPAL 02 Oct 19:15:59 19:20:13 27° 298° (WNW) 19:24:23 ?
Sapphire 02 Oct 19:42:43 19:47:23 30° 251° (WSW) 19:52:00 437.095 MHz 1200 baud AX-25 AFSK
SO-67 02 Oct 19:45:37 19:48:51 38° 262° (W) 19:52:07 435.3500 MHz FM
HO-68 02 Oct 20:04:28 20:10:50 37° 62° (ENE) 20:17:14 435.675 MHz FM
SO-50 02 Oct 20:05:47 20:10:05 43° 311° (NW) 20:14:31 436.795 FM
PCSat 02 Oct 20:09:09 20:12:30 17° 256° (WSW) 20:15:49 145.825 MHz
STRAND 1 02 Oct 20:19:41 20:24:48 65° 287° (WNW) 20:29:54 ?
UOSAT-12 02 Oct 20:23:56 20:28:00 31° 114° (ESE) 20:32:08 437.025 FM, 437.400 FM
Oscar 11 02 Oct 21:08:52 21:12:36 28° 68° (ENE) 21:16:20 145.825 FM, Beacon 2401.500 USB
KITSAT 1 02 Oct 21:15:50 21:19:44 14° 350° (N) 21:23:37 435.175 FM
Saudisat 1A 02 Oct 21:34:39 21:38:18 24° 43° (NE) 21:41:56 436.775 MHz
FUNcube-1 02 Oct 21:37:56 21:41:41 26° 67° (ENE) 21:45:29 145.950 - 145.970 MHz USB
UKube-1 02 Oct 21:39:25 21:43:44 79° 75° (ENE) 21:48:06 145.840 MHz, 145.915 MHz
HO-68 02 Oct 21:51:34 21:58:22 47° 260° (W) 22:05:14 435.675 MHz FM
ISS 02 Oct 22:02:30 22:05:48 67° 143° (SE) 22:09:06 145.800 FM
UOSAT-12 02 Oct 22:03:47 22:08:04 35° 313° (NW) 22:12:26 437.025 FM, 437.400 FM
ZACube-1 02 Oct 22:22:35 22:27:07 73° 75° (ENE) 22:31:45 437.345 MHz
Oscar 11 02 Oct 22:45:00 22:48:43 27° 265° (W) 22:52:28 145.825 FM, Beacon 2401.500 USB
FUNcube-1 02 Oct 23:13:46 23:17:54 34° 264° (W) 23:22:07 145.950 - 145.970 MHz USB
Saudisat 1A 02 Oct 23:13:51 23:18:04 45° 242° (WSW) 23:22:15 436.775 MHz
KITSAT 1 02 Oct 23:14:14 23:19:12 17° 21° (NNE) 23:24:09 435.175 FM
ISS 02 Oct 23:39:51 23:42:43 26° 342° (NNW) 23:45:36 145.800 FM
ZACube-1 03 Oct 00:02:23 00:04:02 12° 272° (W) 00:05:42 437.345 MHz
RS-15 03 Oct 01:02:40 01:11:33 30° 104° (ESE) 01:20:19 29.354 - 29.394 USB, Beacon 29.352 USB
KITSAT 1 03 Oct 01:09:15 01:16:59 46° 48° (NE) 01:24:39 435.175 FM
ISS 03 Oct 01:17:49 01:20:12 18° 2° (N) 01:22:36 145.800 FM
Oscar 19 03 Oct 01:54:38 01:59:07 29° 95° (E) 02:03:33 437.125 CW, 437.150 USB
ITAMSAT 1 03 Oct 02:11:41 02:15:14 18° 92° (E) 02:18:45 435.822 SSB
Uribyol 2 03 Oct 02:11:54 02:15:38 19° 92° (E) 02:19:20 436.500 FM
AO-Echo 03 Oct 02:28:49 02:33:21 32° 96° (E) 02:37:58 ?
Oscar 16 03 Oct 02:35:38 02:40:49 73° 103° (ESE) 02:45:56 437.025 USB, Beacon 2401.1428
AO-27 03 Oct 02:49:41 02:54:38 41° 98° (E) 02:59:33 436.795 MHz FM
ISS 03 Oct 02:54:32 02:57:36 33° 22° (NNE) 03:00:40 145.800 FM
SO-50 03 Oct 02:56:00 03:00:20 32° 46° (NE) 03:04:41 436.795 FM
KITSAT 1 03 Oct 03:04:49 03:12:25 47° 248° (WSW) 03:19:58 435.175 FM
JAS-1B 03 Oct 03:08:20 03:14:03 77° 104° (ESE) 03:20:19 435.800 - 435.900 CW/SSB
RS-15 03 Oct 03:11:44 03:22:46 78° 306° (NW) 03:33:46 29.354 - 29.394 USB, Beacon 29.352 USB
OPAL 03 Oct 03:17:22 03:19:23 12° 54° (NE) 03:21:25 ?
Gurwin Techsat 1B 03 Oct 03:26:04 03:31:09 45° 99° (E) 03:36:13 435.225 FM
Oscar 19 03 Oct 03:33:50 03:38:28 35° 293° (WNW) 03:43:05 437.125 CW, 437.150 USB
AO-7 03 Oct 03:44:37 03:49:08 15° 88° (E) 03:53:37 29.400 - 29.500 MHz
ITAMSAT 1 03 Oct 03:49:58 03:55:06 59° 288° (WNW) 04:00:13 435.822 SSB
Uribyol 2 03 Oct 03:50:19 03:55:26 55° 289° (WNW) 04:00:31 436.500 FM
TMSAT-1 03 Oct 03:53:15 03:58:30 59° 101° (E) 04:03:43 436.925 FM
AO-Echo 03 Oct 04:07:36 04:12:03 32° 292° (WNW) 04:16:36 ?
Oscar 16 03 Oct 04:16:32 04:19:33 16° 300° (WNW) 04:22:33 437.025 USB, Beacon 2401.1428
AO-27 03 Oct 04:29:37 04:33:57 27° 295° (WNW) 04:38:16 436.795 MHz FM
ISS 03 Oct 04:31:12 04:34:21 40° 220° (SW) 04:37:29 145.800 FM
SO-50 03 Oct 04:36:29 04:40:57 38° 244° (WSW) 04:45:26 436.795 FM
OPAL 03 Oct 04:52:13 04:57:26 80° 72° (ENE) 05:02:40 ?
UOSAT-12 03 Oct 04:52:16 04:56:41 37° 48° (NE) 05:01:02 437.025 FM, 437.400 FM
JAS-1B 03 Oct 05:00:52 05:04:10 16° 302° (WNW) 05:07:36 435.800 - 435.900 CW/SSB
JAS-2 03 Oct 05:06:16 05:09:43 14° 88° (E) 05:13:18 435.800 - 435.900 CW/SSB, 435.910 FM
Gurwin Techsat 1B 03 Oct 05:06:34 05:10:52 26° 296° (WNW) 05:15:09 435.225 FM
MaSat-1 03 Oct 05:21:56 05:26:44 67° 114° (ESE) 05:31:16 437.345 MHz
RS-15 03 Oct 05:27:55 05:37:11 30° 334° (NNW) 05:46:34 29.354 - 29.394 USB, Beacon 29.352 USB
Uosat F 03 Oct 05:30:28 05:35:33 78° 104° (ESE) 05:40:35 435.120 FM
TMSAT-1 03 Oct 05:34:11 05:37:58 20° 298° (WNW) 05:41:44 436.925 FM
AO-7 03 Oct 05:34:49 05:43:10 79° 107° (ESE) 05:51:28 29.400 - 29.500 MHz
STRAND 1 03 Oct 05:58:35 06:02:45 26° 65° (ENE) 06:06:56 ?
Hamsat 03 Oct 06:29:36 06:33:34 39° 98° (E) 06:37:29 145.90 MHz
UOSAT-12 03 Oct 06:32:39 06:36:44 30° 246° (WSW) 06:40:45 437.025 FM, 437.400 FM
OPAL 03 Oct 06:34:28 06:36:53 13° 269° (W) 06:39:18 ?
